Weather Roundup
Issued by NWS

Home | Current Version | Previous Version | Graphics & Text | Print | Product List | Glossary Off
Versions: 1 2 3 4 5 6 7 8 9 10 11 12 13 14 15 16 17 18 19 20 21 22 23 24 25 26 27 28 29 30 31 32 33 34 35 36 37 38 39 40 41 42 43 44 45 46 47 48 49 50

661
NZUS93 KARX 030210
HRRWXR

CURRENT HOURLY OBSERVATIONS ACROSS
MUCH OF THE UPPER MISSISSIPPI VALLEY
NATIONAL WEATHER SERVICE LA CROSSE WI
800 PM CST FRI DEC 02 2016


...SOUTHEAST MINNESOTA...


CITY           SKY/WX    TMP DP  RH WIND       PRES   REMARKS
ROCHESTER      CLOUDY    28  22  78 NW13      30.29R WCI  17
ROCHESTER/MAYO CLOUDY    29  22  74 W8        30.29R WCI  21
WINONA         CLOUDY    34  25  69 W6        30.30S WCI  29
AUSTIN         CLOUDY    28  21  74 NW9       30.30S WCI  20
ALBERT LEA     CLOUDY    32  25  74 W6        30.30S WCI  26
DODGE CENTER   CLOUDY    27  21  80 W6        30.29R WCI  20
PRESTON        CLOUDY    28  22  78 W6        30.29R WCI  22
OWATONNA       CLOUDY    28  21  74 W7        30.30R WCI  21
FARIBAULT      CLOUDY    28  21  74 W6        30.30S WCI  22
$$

...ELSEWHERE IN MINNESOTA...


CITY           SKY/WX    TMP DP  RH WIND       PRES   REMARKS
MINNEAPOLIS    CLOUDY    31  23  72 W7        30.29S WCI  24
INTNL FALLS    CLOUDY    23  19  85 W6        30.25R WCI  16
DULUTH         CLOUDY    29  25  85 W8        30.22S WCI  21
RED WING       CLOUDY    32  21  64 W7        30.28S WCI  26
REDWOOD FALLS  CLOUDY    29  19  66 NW6       30.30S WCI  23
MANKATO        CLOUDY    29  22  75 NW7       30.31R WCI  22
WORTHINGTON    CLOUDY    28  22  78 W9        30.30R WCI  19
FAIRMONT       CLOUDY    30  24  78 CALM      30.31S
$$

...SOUTHWEST WISCONSIN...


CITY           SKY/WX    TMP DP  RH WIND       PRES   REMARKS
LA CROSSE      CLOUDY    34  23  64 NW6       30.30R WCI  29
PRAIRIE DU CHI CLOUDY    32  21  64 NW6       30.32R WCI  26
BOSCOBEL       CLOUDY    34  23  64 NW5       30.31R WCI  30
LONE ROCK      CLOUDY    33  23  66 N7        30.30S WCI  27
PLATTEVILLE    CLOUDY    32  26  78 NW6       30.30R WCI  26
FORT MC COY    CLOUDY    32  25  74 NW5       30.29S WCI  27
CAMP DOUGLAS   CLOUDY    31  23  73 NW7       30.27S WCI  24
MAUSTON-NEW LI CLOUDY    32  24  71 NW3       30.27S
VIROQUA        CLOUDY    30  24  77 NW7       30.27R WCI  23
WIS DELLS      CLOUDY    31  23  72 W5        30.28R WCI  26
$$

...ELSEWHERE IN WISCONSIN...


CITY           SKY/WX    TMP DP  RH WIND       PRES   REMARKS
MILWAUKEE      CLOUDY    35  23  61 NW8       30.27R WCI  29
MADISON        CLOUDY    31  21  66 VRB3      30.28R
GREEN BAY      CLOUDY    36  29  75 W10       30.25S WCI  28
EAU CLAIRE     CLOUDY    31  24  75 NW6       30.26F WCI  25
BLACK RVR FLS  CLOUDY    32  24  71 CALM      30.27F
MEDFORD        CLOUDY    28  22  78 W3        30.23F
WAUSAU         CLOUDY    31  23  72 NW9       30.22F WCI  23
WIS RAPIDS     CLOUDY    31  23  72 N6        30.26F WCI  25
MARSHFIELD     CLOUDY    30  22  72 NW8       30.23F WCI  22
RICE LAKE      CLOUDY    30  24  78 CALM      30.28S
$$

...NORTHEAST IOWA...


CITY           SKY/WX    TMP DP  RH WIND       PRES   REMARKS
WATERLOO       CLOUDY    32  24  72 CALM      30.33R
DUBUQUE        CLOUDY    31  23  72 W12       30.30R WCI  22
DECORAH        CLOUDY    30  23  74 NW7       30.29S WCI  23
MASON CITY     CLOUDY    29  25  85 NW8       30.33R WCI  21
CHARLES CITY   CLOUDY    30  25  80 NW8       30.32R WCI  23
OELWEIN        CLOUDY    30  25  80 N10       30.32R WCI  21
$$

...ELSEWHERE IN IOWA...


CITY           SKY/WX    TMP DP  RH WIND       PRES   REMARKS
DES MOINES     CLOUDY    38  33  82 CALM      30.34S
IOWA CITY      CLOUDY    36  26  67 NW5       30.36R WCI  32
FORT DODGE     CLOUDY    32  23  69 CALM      30.34R
MARSHALLTOWN   CLOUDY    33  29  85 CALM      30.33R
CEDAR RAPIDS   CLOUDY    32  27  81 NW6       30.33R WCI  26
$$

...NORTHERN ILLINOIS...


CITY           SKY/WX    TMP DP  RH WIND       PRES   REMARKS
CHICAGO-OHARE  CLOUDY    35  25  66 NW8       30.29R WCI  29
CHICAGO-MIDWAY CLOUDY    38  26  62 W8        30.30R WCI  32
MOLINE         CLOUDY    36  25  64 NW8       30.33R WCI  30
ROCKFORD       CLOUDY    33  24  69 W8        30.32R WCI  26
PEORIA         CLOUDY    38  28  67 NW7       30.34R WCI  33
$$

NOTE: "FAIR" INDICATES FEW OR NO CLOUDS BELOW 12,000 FEET WITH NO
SIGNIFICANT WEATHER AND/OR OBSTRUCTIONS TO VISIBILITY. WIND
SPEEDS ARE IN MILES-PER-HOUR.




USA.gov is the U.S. government's official web portal to all federal, state and local government web resources and services.